Weather reports worldwide

Advertisment
Le Talut, France (7207): temperature & dewpoint: 10.09.2019 05:00:00 - 16.09.2019 05:00:00 (CEST)Le Talut, France (7207): wind speed & gusts: 10.09.2019 05:00:00 - 16.09.2019 05:00:00 (CEST)Le Talut, France (7207): wind direction: 10.09.2019 05:00:00 - 16.09.2019 05:00:00 (CEST)Le Talut, France (7207): reduced air pressure: 10.09.2019 05:00:00 - 16.09.2019 05:00:00 (CEST)Le Talut, France (7207): visibility: 10.09.2019 05:00:00 - 16.09.2019 05:00:00 (CEST)Le Talut, France (7207): precipitation: 10.09.2019 05:00:00 - 16.09.2019 05:00:00 (CEST)
Date & Time tt [°C] td [°C] ff [km/h] ff [kn] fx [km/h] fx [kn] dd ppp [hPa] vv [km] rr [mm]
16.09.2019 05:00:00 - - - - - - - - - -
16.09.2019 04:00:00 15,3 12,2 31 17 44 24 NNE 1022,2 - 0,0
16.09.2019 03:00:00 15,7 11,5 31 17 44 24 NNE 1022,4 - 0,0
16.09.2019 02:00:00 16,2 12,2 29 16 41 22 NNE 1022,5 - 0,0
16.09.2019 01:00:00 16,9 12,2 29 16 44 24 NNE 1022,7 - 0,0
16.09.2019 00:00:00 17,8 13,1 26 14 41 22 N 1022,9 - 0,0
15.09.2019 23:00:00 19,0 13,6 31 17 42 23 NNE 1022,8 - 0,0
15.09.2019 22:00:00 19,7 15,8 22 12 31 17 N 1022,8 - 0,0
15.09.2019 21:00:00 19,8 15,6 18 10 26 14 N 1022,5 - 0,0
15.09.2019 20:00:00 21,1 16,1 13 7 22 12 NNW 1022,4 - 0,0
15.09.2019 19:00:00 22,3 16,1 16 9 25 14 NW 1022,4 - 0,0
15.09.2019 18:00:00 23,1 16,6 8 4 15 8 WNW 1022,6 - 0,0
15.09.2019 17:00:00 25,1 15,7 4 2 21 12 SW 1022,8 25 0,0
15.09.2019 16:00:00 26,9 15,3 13 7 31 17 ENE 1023,3 - 0,0
15.09.2019 15:00:00 25,6 15,9 18 10 29 16 NNE 1023,9 - 0,0
15.09.2019 14:00:00 24,5 16,2 13 7 31 17 E 1024,1 25 0,0
15.09.2019 13:00:00 23,5 15,8 19 10 34 18 NE 1024,8 - 0,0
15.09.2019 12:00:00 21,5 15,1 24 13 41 22 ENE 1025,3 - 0,0
15.09.2019 11:00:00 20,2 14,8 29 15 42 23 NNE 1025,1 - 0,0
15.09.2019 10:00:00 18,8 14,5 28 15 41 22 NNE 1024,7 - 0,0
15.09.2019 09:00:00 17,4 14,3 26 14 39 21 NNE 1024,5 - 0,0
15.09.2019 08:00:00 16,4 14,1 27 15 36 19 NNE 1024,5 25 0,0
15.09.2019 07:00:00 16,9 14,5 26 14 35 19 NNE 1024,1 - 0,0
15.09.2019 06:00:00 17,2 14,5 23 13 34 18 NNE 1024,0 - 0,0
15.09.2019 05:00:00 17,6 14,7 24 13 32 17 NE 1024,6 - 0,0
15.09.2019 04:00:00 18,0 15,1 23 12 35 19 NE 1025,0 - 0,0
15.09.2019 03:00:00 17,9 15,0 27 14 37 20 NNE 1025,1 - 0,0
15.09.2019 02:00:00 18,7 15,2 27 15 39 21 NNE 1025,2 - 0,0
15.09.2019 01:00:00 19,1 15,2 29 15 42 23 NNE 1025,4 - 0,0
15.09.2019 00:00:00 19,0 15,5 31 17 43 23 NNE 1025,8 - 0,0
14.09.2019 23:00:00 19,8 16,2 25 13 34 18 N 1026,0 - 0,0
14.09.2019 22:00:00 19,9 15,1 19 10 27 15 N 1026,0 - 0,0
14.09.2019 21:00:00 20,2 15,4 16 8 18 10 N 1026,0 - 0,0
14.09.2019 20:00:00 24,0 16,0 8 5 16 9 N 1025,9 25 0,0
14.09.2019 19:00:00 26,2 15,9 10 5 26 14 NNE 1025,8 - 0,0
14.09.2019 18:00:00 26,5 15,8 16 8 31 17 NNE 1025,8 - 0,0
14.09.2019 17:00:00 26,2 15,6 19 11 35 19 NNE 1026,3 - 0,0
14.09.2019 16:00:00 25,4 15,7 24 13 37 20 NNE 1026,7 - 0,0
14.09.2019 15:00:00 24,1 15,8 24 13 37 20 NNE 1027,3 - 0,0
14.09.2019 14:00:00 23,2 16,3 24 13 37 20 NNE 1027,6 - 0,0
14.09.2019 13:00:00 21,6 16,1 25 14 47 25 NNE 1028,3 - 0,0
14.09.2019 12:00:00 20,4 15,8 29 16 48 26 NE 1028,4 - 0,0
14.09.2019 11:00:00 19,3 15,4 30 16 53 29 NE 1028,6 25 0,0
14.09.2019 10:00:00 18,2 15,3 34 18 50 27 NE 1029,0 - 0,0
14.09.2019 09:00:00 17,2 15,0 31 17 46 25 NE 1029,2 - 0,0
14.09.2019 08:00:00 16,5 14,9 32 17 48 26 NNE 1028,8 25 0,0
14.09.2019 07:00:00 16,5 14,9 32 17 46 25 NNE 1028,5 - 0,0
14.09.2019 06:00:00 16,7 15,1 31 17 45 24 NE 1028,5 - 0,0
14.09.2019 05:00:00 16,8 15,1 29 16 44 24 NE 1028,8 - 0,0
14.09.2019 04:00:00 16,9 15,2 29 16 45 24 NE 1029,1 - 0,0
14.09.2019 03:00:00 17,1 15,4 33 18 47 26 NNE 1029,6 - 0,0
14.09.2019 02:00:00 16,8 15,3 32 18 49 26 NNE 1029,7 - 0,0
14.09.2019 01:00:00 16,8 15,1 33 18 50 27 NNE 1029,8 - 0,0
14.09.2019 00:00:00 17,2 14,8 31 17 47 26 NNE 1030,3 - 0,0
13.09.2019 23:00:00 17,9 14,8 27 15 44 24 NNE 1030,6 - 0,0
13.09.2019 22:00:00 18,4 15,1 23 12 36 20 NNE 1030,7 - 0,0
13.09.2019 21:00:00 18,8 14,9 12 6 21 11 NNE 1030,8 - 0,0
13.09.2019 20:00:00 20,8 15,6 12 7 29 16 N 1030,6 25 0,0
13.09.2019 19:00:00 21,9 15,7 18 10 35 19 N 1030,4 - 0,0
13.09.2019 18:00:00 22,4 15,7 21 11 35 19 NNE 1030,9 - 0,0
13.09.2019 17:00:00 22,5 15,8 22 12 39 21 NNE 1030,9 25 0,0
13.09.2019 16:00:00 22,9 16,4 18 10 35 19 N 1031,7 - 0,0
13.09.2019 15:00:00 22,4 15,7 18 10 34 18 NNE 1032,3 - 0,0
13.09.2019 14:00:00 21,9 16,6 18 10 32 17 NNE 1032,5 - 0,0
13.09.2019 13:00:00 20,6 16,2 23 12 37 20 NNE 1032,7 - 0,0
13.09.2019 12:00:00 19,3 16,0 27 14 40 21 NE 1032,9 - 0,0
13.09.2019 11:00:00 18,6 16,4 22 12 34 18 NE 1033,2 20 0,0
13.09.2019 10:00:00 16,7 15,4 19 11 32 18 N 1033,5 - 0,0
13.09.2019 09:00:00 15,7 14,7 18 10 26 14 N 1033,1 - 0,0
13.09.2019 08:00:00 14,9 14,1 11 6 24 13 N 1032,9 18 0,0
13.09.2019 07:00:00 15,0 14,2 14 7 24 13 N 1032,5 - 0,0
13.09.2019 06:00:00 15,4 14,6 16 9 28 15 N 1032,4 - 0,0
13.09.2019 05:00:00 15,2 14,4 14 8 22 12 N 1032,5 - 0,0
13.09.2019 04:00:00 15,4 14,6 10 5 17 9 N 1032,9 - 0,0
13.09.2019 03:00:00 15,6 14,6 13 7 26 14 N 1032,9 - 0,0
13.09.2019 02:00:00 16,0 15,0 18 10 25 14 N 1032,9 - 0,0
13.09.2019 01:00:00 16,1 15,1 14 8 22 12 NNW 1033,0 - 0,0
13.09.2019 00:00:00 16,1 15,0 16 9 21 11 NNW 1033,4 - 0,0
12.09.2019 23:00:00 16,4 15,3 15 8 20 11 NNW 1033,3 - 0,0
12.09.2019 22:00:00 16,8 15,7 11 6 18 10 WNW 1033,4 - 0,0
12.09.2019 21:00:00 17,0 15,5 8 5 19 10 WNW 1032,9 - 0,0
12.09.2019 20:00:00 17,8 16,0 10 6 19 11 WNW 1032,7 - 0,0
12.09.2019 19:00:00 19,2 16,4 10 5 18 10 W 1032,8 - 0,0
12.09.2019 18:00:00 19,3 16,9 9 5 14 8 W 1032,9 - 0,0
12.09.2019 17:00:00 19,1 16,7 11 6 20 11 W 1033,1 15 0,0
12.09.2019 16:00:00 19,9 17,1 13 7 20 11 W 1033,4 - 0,0
12.09.2019 15:00:00 18,4 16,7 8 4 14 8 W 1033,6 - 0,0
12.09.2019 14:00:00 19,0 16,8 10 5 19 10 W 1033,6 - 0,0
12.09.2019 13:00:00 18,1 16,8 11 6 22 12 NW 1033,8 - 0,0
12.09.2019 12:00:00 19,4 17,4 9 5 13 7 W 1033,4 - 0,0
12.09.2019 11:00:00 18,0 17,0 5 3 11 6 WSW 1033,2 - 0,0
12.09.2019 10:00:00 17,7 17,1 5 3 9 5 W 1032,5 - 0,0
12.09.2019 09:00:00 17,0 16,4 6 3 10 5 W 1031,9 - 0,0
12.09.2019 08:00:00 16,8 16,2 5 3 10 6 WNW 1031,4 8 0,2
12.09.2019 07:00:00 16,7 16,1 6 3 10 6 WNW 1030,9 - 0,4
12.09.2019 06:00:00 16,8 16,2 6 3 12 7 WSW 1030,6 - 0,0
12.09.2019 05:00:00 16,7 15,9 6 3 13 7 W 1030,7 - 0,2
12.09.2019 04:00:00 16,8 15,8 8 5 14 8 WSW 1030,8 - 0,0
12.09.2019 03:00:00 16,8 15,5 10 5 27 14 W 1031,1 - 0,0
12.09.2019 02:00:00 16,7 15,4 14 7 29 16 W 1030,9 - 0,0
12.09.2019 01:00:00 16,8 15,5 11 6 24 13 WNW 1030,5 - 0,0
12.09.2019 00:00:00 17,0 15,5 11 6 23 12 W 1030,3 - 0,0
11.09.2019 23:00:00 16,9 15,6 15 8 29 16 W 1030,1 - 0,0
11.09.2019 22:00:00 16,9 15,8 12 7 21 12 W 1029,8 - 0,0
11.09.2019 21:00:00 17,0 15,7 11 6 24 13 W 1029,6 - 0,0
11.09.2019 20:00:00 17,6 15,4 17 9 29 16 W 1028,8 - 0,0
11.09.2019 19:00:00 18,3 15,2 19 10 32 17 W 1028,9 - 0,0
11.09.2019 18:00:00 17,6 15,0 24 13 35 19 W 1028,8 - 0,0
11.09.2019 17:00:00 18,0 14,5 21 12 31 17 W 1028,8 25 0,0
11.09.2019 16:00:00 18,3 14,2 21 11 32 17 W 1028,6 - 0,0
11.09.2019 15:00:00 18,5 14,2 22 12 35 19 W 1028,8 - 0,0
11.09.2019 14:00:00 17,8 13,1 20 11 30 16 W 1028,7 25 0,0
11.09.2019 13:00:00 17,2 12,5 17 9 27 15 WSW 1028,8 - 0,0
11.09.2019 12:00:00 16,7 11,8 11 6 19 10 WSW 1029,0 - 0,0
11.09.2019 11:00:00 17,1 11,8 13 7 18 10 W 1028,5 25 0,0
11.09.2019 10:00:00 15,6 11,4 9 5 16 8 W 1027,9 - 0,0
11.09.2019 09:00:00 13,5 10,7 8 4 13 7 NW 1027,2 - 0,0
11.09.2019 08:00:00 11,9 9,3 9 5 15 8 NNW 1026,6 19 0,0
11.09.2019 07:00:00 12,1 9,8 11 6 20 11 NNW 1026,1 - 0,0
11.09.2019 06:00:00 12,3 10,9 14 7 21 11 NNW 1026,0 - 0,0
11.09.2019 05:00:00 12,8 11,4 15 8 22 12 NNW 1025,6 - 0,0
11.09.2019 04:00:00 12,8 11,2 14 8 21 11 NNW 1025,7 - 0,0
11.09.2019 03:00:00 13,1 11,5 14 8 19 11 N 1025,9 - 0,0
11.09.2019 02:00:00 13,2 11,4 13 7 23 12 N 1025,6 - 0,0
11.09.2019 01:00:00 14,0 11,9 14 7 25 13 N 1025,7 - 0,0
11.09.2019 00:00:00 14,5 12,4 16 8 25 13 N 1025,1 - 0,0
10.09.2019 23:00:00 15,1 11,5 17 9 23 12 N 1025,0 - 0,0
10.09.2019 22:00:00 15,0 10,6 13 7 21 11 N 1024,0 - 0,0
10.09.2019 21:00:00 16,5 13,0 11 6 16 8 N 1023,0 - 0,0
10.09.2019 20:00:00 18,0 14,3 8 4 26 14 WNW 1022,4 - 0,0
10.09.2019 19:00:00 18,6 14,1 14 7 24 13 W 1021,9 - 0,0
10.09.2019 18:00:00 18,9 14,2 16 9 29 16 W 1021,6 - 0,0
10.09.2019 17:00:00 19,7 12,9 13 7 27 15 W 1021,4 - 0,0
10.09.2019 16:00:00 20,4 11,6 13 7 34 18 N 1021,1 - 0,0
10.09.2019 15:00:00 20,0 11,2 20 11 40 22 NNE 1020,9 - 0,0
10.09.2019 14:00:00 19,0 11,8 26 14 42 23 N 1021,1 25 0,0
10.09.2019 13:00:00 17,7 12,6 27 15 41 22 NNE 1020,6 - 0,0
10.09.2019 12:00:00 16,4 12,2 25 14 40 22 N 1019,9 - 0,0
10.09.2019 11:00:00 15,5 12,4 21 12 32 18 N 1018,9 18 0,0
10.09.2019 10:00:00 14,4 11,9 21 11 35 19 N 1017,9 - 0,0
10.09.2019 09:00:00 13,5 11,9 17 9 35 19 N 1016,9 - 0,0
10.09.2019 08:00:00 12,3 11,2 18 10 33 18 N 1015,7 15 0,0
10.09.2019 07:00:00 12,7 11,4 22 12 34 19 N 1014,8 - 0,0
10.09.2019 06:00:00 13,1 11,5 21 11 37 20 N 1014,1 - 0,0
10.09.2019 05:00:00 14,0 12,0 23 12 40 21 N 1013,6 - 0,0

tt = temperature
td = dewpoint
ff = wind speed
fx = gusts
dd = wind direction
ppp = reduced air pressure
vv = visibility
rr = precipitation

Next stations